| time (UTC) | temp F | wind direction | speed MPH | gust MPH | rain 1hr in | rain 24hr in | rain mn in | humidity % | barometer mb |
| 20260901132941 | 78 | 156 | 0.0 | 0.0 | 0.00 | 0.00 | 0.00 | 91 | 1013.9 |
| 20260901130010 | 76 | 156 | 0.0 | 0.0 | 0.00 | 0.00 | 0.00 | 91 | 1013.4 |
| 20260901123009 | 76 | 156 | 0.0 | 0.0 | 0.00 | 0.00 | 0.00 | 90 | 1013.3 |
| 20260901120009 | 76 | 156 | 0.0 | 0.0 | 0.00 | 0.00 | 0.00 | 90 | 1013.1 |
| 20260901112938 | 77 | 156 | 0.0 | 2.0 | 0.00 | 0.00 | 0.00 | 88 | 1013.1 |
| 20260901110007 | 78 | 156 | 0.0 | 5.0 | 0.00 | 0.00 | 0.00 | 88 | 1013.1 |
| 20260901103006 | 78 | 156 | 0.0 | 7.0 | 0.00 | 0.00 | 0.00 | 86 | 1013.0 |
| 20260901100005 | 79 | 156 | 0.0 | 5.0 | 0.00 | 0.00 | 0.00 | 85 | 1012.8 |
| 20260901093005 | 79 | 156 | 0.0 | 5.0 | 0.00 | 0.00 | 0.00 | 84 | 1013.3 |
| 20260901090004 | 79 | 156 | 0.0 | 2.0 | 0.00 | 0.00 | 0.00 | 83 | 1013.1 |
| 20260901083003 | 80 | 156 | 0.0 | 5.0 | 0.00 | 0.00 | 0.00 | 81 | 1013.0 |
| 20260901080002 | 80 | 156 | 1.0 | 2.0 | 0.00 | 0.00 | 0.00 | 79 | 1013.0 |
| 20260901073002 | 81 | 156 | 0.0 | 6.0 | 0.00 | 0.00 | 0.00 | 77 | 1013.1 |
| 20260901070001 | 82 | 156 | 4.0 | 9.0 | 0.00 | 0.00 | 0.00 | 75 | 1013.2 |
| 20260901063000 | 83 | 155 | 4.0 | 10.0 | 0.00 | 0.00 | 0.00 | 73 | 1013.0 |
| 20260901055959 | 84 | 157 | 4.0 | 12.0 | 0.00 | 0.00 | 0.00 | 71 | 1012.8 |
| 20260901052959 | 85 | 150 | 2.0 | 9.0 | 0.00 | 0.00 | 0.00 | 69 | 1012.8 |
| 20260901035956 | 87 | 126 | 6.0 | 16.0 | 0.00 | 0.00 | 0.00 | 60 | 1012.3 |
| 20260901032956 | 88 | 137 | 11.0 | 14.0 | 0.00 | 0.00 | 0.00 | 56 | 1012.0 |
| 20260901025955 | 89 | 111 | 4.0 | 10.0 | 0.00 | 0.00 | 0.00 | 51 | 1011.8 |
| 20260901022954 | 90 | 102 | 1.0 | 7.0 | 0.00 | 0.00 | 0.00 | 47 | 1011.0 |
| 20260901012953 | 91 | 102 | 0.0 | 6.0 | 0.00 | 0.00 | 0.00 | 45 | 1010.4 |
| 20260901002951 | 94 | 103 | 4.0 | 7.0 | 0.00 | 0.00 | 0.00 | 41 | 1010.0 |
| 20260831235950 | 95 | 103 | 2.0 | 9.0 | 0.00 | 0.00 | 0.00 | 41 | 1009.9 |
| 20260831232950 | 97 | 101 | 0.0 | 14.0 | 0.00 | 0.00 | 0.00 | 41 | 1010.0 |
| 20260831225949 | 96 | 101 | 0.0 | 9.0 | 0.00 | 0.00 | 0.00 | 44 | 1010.0 |
| 20260831222948 | 97 | 103 | 0.0 | 5.0 | 0.00 | 0.00 | 0.00 | 42 | 1010.3 |
| 20260831215947 | 98 | 103 | 0.0 | 10.0 | 0.00 | 0.00 | 0.00 | 40 | 1010.5 |
| 20260831212947 | 98 | 107 | 4.0 | 10.0 | 0.00 | 0.00 | 0.00 | 41 | 1010.8 |
| 20260831205946 | 98 | 153 | 0.0 | 10.0 | 0.00 | 0.00 | 0.00 | 40 | 1011.2 |
| 20260831202945 | 98 | 188 | 9.0 | 14.0 | 0.00 | 0.00 | 0.00 | 42 | 1012.0 |
| 20260831195944 | 96 | 120 | 1.0 | 16.0 | 0.00 | 0.00 | 0.00 | 45 | 1012.3 |
| 20260831192943 | 96 | 150 | 0.0 | 12.0 | 0.00 | 0.00 | 0.00 | 47 | 1012.7 |
| 20260831185943 | 95 | 158 | 4.0 | 10.0 | 0.00 | 0.00 | 0.00 | 48 | 1013.2 |
| 20260831182942 | 95 | 138 | 7.0 | 15.0 | 0.00 | 0.00 | 0.00 | 50 | 1013.4 |
| 20260831175941 | 94 | 130 | 9.0 | 15.0 | 0.00 | 0.00 | 0.00 | 51 | 1013.6 |
| 20260831172940 | 92 | 149 | 0.0 | 12.0 | 0.00 | 0.00 | 0.00 | 56 | 1013.8 |
| 20260831165940 | 90 | 173 | 0.0 | 8.0 | 0.00 | 0.00 | 0.00 | 63 | 1014.3 |
| 20260831162940 | 89 | 178 | 0.0 | 9.0 | 0.00 | 0.00 | 0.00 | 64 | 1014.5 |
| 20260831160008 | 87 | 175 | 4.0 | 10.0 | 0.00 | 0.00 | 0.00 | 70 | 1014.3 |
| 20260831153008 | 85 | 159 | 0.0 | 9.0 | 0.00 | 0.00 | 0.00 | 73 | 1014.0 |
| 20260831143006 | 81 | 182 | 2.0 | 10.0 | 0.00 | 0.00 | 0.00 | 84 | 1013.7 |
| 20260831140005 | 80 | 180 | 2.0 | 8.0 | 0.00 | 0.00 | 0.00 | 88 | 1013.4 |